Weather Service Report


021 
ASUS44 KMEG 231210
RWRTN 
TENNESSEE HOURLY STATE WEATHER ROUNDUP
NATIONAL WEATHER SERVICE MEMPHIS TN
700 AM CDT THU OCT 23 2014

TNZ002-004-019-021-049-052-054-088>092-231300-
WEST TENNESSEE
  
CITY           SKY/WX    TMP DP  RH WIND       PRES   REMARKS
MEMPHIS INTL   MOCLDY    45  40  82 NE3       30.19R                  
NWS MEMPHIS      N/A     42 N/A N/A MISG        N/A                   
JACKSON        CLEAR     37  35  92 CALM      30.19F                  
DYERSBURG      CLEAR     45  32  61 CALM      30.21S                  
UNION CITY     CLEAR     39  39 100 E3        30.18F                  
PARIS          CLEAR     41  37  87 E5        30.21S                  
LEXINGTON      CLEAR     37  36  93 CALM      30.18S                  
SAVANNAH       CLEAR     34  34 100 CALM      30.18S                  
$$

TNZ008-025-027-028-033-062-065-066-231300-
NORTH MIDDLE TENNESSEE
  
CITY           SKY/WX    TMP DP  RH WIND       PRES   REMARKS
NASHVILLE      PTCLDY    42  40  92 CALM      30.23S                  
CLARKSVILLE    CLEAR     38  37  97 CALM      30.22F FOG              
SMYRNA         CLEAR     35  35 100 CALM      30.24S                  
COOKEVILLE       N/A     30  30 100 CALM      30.21F VSB 1/2          
CROSSVILLE     CLEAR     37  33  85 CALM      30.21R                  
$$

TNZ061-075-076-078-094-096-097-231300-
SOUTH MIDDLE TENNESSEE
  
CITY           SKY/WX    TMP DP  RH WIND       PRES   REMARKS
FAYETTEVILLE   CLEAR     37  36  93 NE7       30.17F WCI  32          
TULLAHOMA      CLEAR     39  37  93 E6        30.19F WCI  35          
WINCHESTER     CLEAR     34  34 100 CALM      30.19F                  
MCMINNVILLE    CLEAR     36  36 100 CALM      30.20F                  
COLUMBIA       CLEAR    N/A N/A N/A CALM      30.18F                  
SHELBYVILLE    CLEAR     36  36 100 CALM      30.21F                  
$$

TNZ017-018-042-046-047-231300-
NORTHEAST TENNESSEE
  
CITY           SKY/WX    TMP DP  RH WIND       PRES   REMARKS
TRI CITIES     CLOUDY    47  37  68 N6        30.21R                  
ELIZABETHTON   CLOUDY    45  37  76 W6        30.20R                  
$$

TNZ012-013-036-069-073-074-231300-
CENTRAL EAST TENNESSEE
  
CITY           SKY/WX    TMP DP  RH WIND       PRES   REMARKS
KNOXVILLE      PTCLDY    41  38  89 E3        30.20S                  
OAK RIDGE      PTCLDY    44  40  85 CALM      30.22S                  
GATLINBURG     CLOUDY    39  37  93 CALM      30.21S                  
MORRISTOWN     CLOUDY    46  43  87 CALM      30.21S                  
$$

TNZ083-085-099-231300-
SOUTHEAST TENNESSEE
  
CITY           SKY/WX    TMP DP  RH WIND       PRES   REMARKS
CHATTANOOGA    CLEAR     47  40  76 N7        30.20S                  
$$

SKY/WX REPORTED AS FAIR MEANS FEW OR NO CLOUDS BELOW
12 THOUSAND FEET.



023 
ASUS44 KMEG 231210
RWRMEG
MEMPHIS CWA HOURLY WEATHER ROUNDUP
NATIONAL WEATHER SERVICE MEMPHIS TN
700 AM CDT THU OCT 23 2014

...WEST TENNESSEE...
  
CITY           SKY/WX    TMP DP  RH WIND       PRES   REMARKS
MEMPHIS INTL   MOCLDY    45  40  82 NE3       30.19R                  
6HR MIN TEMP:  44; 6HR MAX TEMP:  53;                                

NWS MEMPHIS      N/A     42 N/A N/A MISG        N/A                   
JACKSON        CLEAR     37  35  92 CALM      30.19F                  
6HR MIN TEMP:  36; 6HR MAX TEMP:  43;                                

LEXINGTON      CLEAR     37  36  93 CALM      30.18S                  
SAVANNAH       CLEAR     34  34 100 CALM      30.18S                  
DYERSBURG      CLEAR     45  32  61 CALM      30.21S                  
6HR MIN TEMP:  43; 6HR MAX TEMP:  46;                                

UNION CITY     CLEAR     39  39 100 E3        30.18F                  
PARIS          CLEAR     41  37  87 E5        30.21S                  


...EASTERN ARKANSAS...
  
CITY           SKY/WX    TMP DP  RH WIND       PRES   REMARKS
JONESBORO      MOCLDY    45  42  89 CALM      30.20S                  
6HR MIN TEMP:  44; 6HR MAX TEMP:  48;                                

WEST MEMPHIS   PTCLDY    42  42 100 N3        30.19R                  
6HR MIN TEMP:  42; 6HR MAX TEMP:  48;                                

BATESVILLE     MOCLDY    43  39  87 CALM      30.20F                  
6HR MIN TEMP:  43; 6HR MAX TEMP:  45;                                

NEWPORT        PTCLDY    42  42 100 N6        30.23R                  
6HR MIN TEMP:  42; 6HR MAX TEMP:  47;                                

WALNUT RIDGE   MOCLDY    43  37  81 N5        30.20S                  
6HR MIN TEMP:  41; 6HR MAX TEMP:  46;                                

BLYTHEVILLE    PTCLDY    41  39  93 N5        30.21R                  
6HR MIN TEMP:  39; 6HR MAX TEMP:  46;                                

SEARCY         PTCLDY    42  41  96 CALM      30.21S                  
6HR MIN TEMP:  41; 6HR MAX TEMP:  47;                                

STUTTGART      PTCLDY    46  41  81 NE5       30.20R                  
6HR MIN TEMP:  45; 6HR MAX TEMP:  46;                                

PINE BLUFF     MOCLDY    48  44  86 N3        30.19R                  
6HR MIN TEMP:  45; 6HR MAX TEMP:  50;                                

MONTICELLO     MOCLDY    48  44  86 CALM      30.17S                  
6HR MIN TEMP:  45; 6HR MAX TEMP:  50;                                



...NORTH MISSISSIPPI...
  
CITY           SKY/WX    TMP DP  RH WIND       PRES   REMARKS
TUPELO         CLEAR     40  37  89 NE8       30.16S WCI  34          
6HR MIN TEMP:  39; 6HR MAX TEMP:  48;                                

OXFORD         CLEAR     37  37 100 CALM      30.19R                  
OLIVE BRANCH   PTCLDY    43  43 100 CALM      30.20R                  
TUNICA         MOCLDY    43  41  93 CALM      30.21R                  
CLARKSDALE     MOCLDY    45  45 100 NW5       30.20R                  
CORINTH        CLEAR     36  36 100 CALM      30.17F                  
GRENADA          N/A    N/A N/A N/A MISG        N/A                   
COLUMBUS       PTCLDY    42  41  99 N1        30.15F                  
6HR MIN TEMP:  41; 6HR MAX TEMP:  44;                                

STARKVILLE     FAIR      41  39  93 CALM      30.16R                  
GOLDEN TRIANGL CLEAR     43  37  81 NE3       30.14S                  


...SOUTHEAST MISSOURI...
  
CITY           SKY/WX    TMP DP  RH WIND       PRES   REMARKS
WEST PLAINS    CLOUDY    40  37  89 CALM      30.21R                  
6HR MIN TEMP:  37; 6HR MAX TEMP:  45;                                

POPLAR BLUFF   PTCLDY    38  35  89 CALM      30.20S                  
6HR MIN TEMP:  38; 6HR MAX TEMP:  42;                                

CAPE GIRARDEAU SNOW      34  32  93 CALM      30.22S VSB 1/4          
6HR MIN TEMP:  33; 6HR MAX TEMP:  42; 6HR PCP: TRACE;                



...NORTHWEST ALABAMA...
  
CITY           SKY/WX    TMP DP  RH WIND       PRES   REMARKS
MUSCLE SHOALS  CLEAR     44  40  85 NE6       30.19S                  
6HR MIN TEMP:  41; 6HR MAX TEMP:  49;                                



...MIDDLE TENNESSEE...
  
CITY           SKY/WX    TMP DP  RH WIND       PRES   REMARKS
NASHVILLE      PTCLDY    42  40  92 CALM      30.23S                  
6HR MIN TEMP:  40; 6HR MAX TEMP:  45;                                

CLARKSVILLE    CLEAR     38  37  97 CALM      30.22F FOG              
6HR MIN TEMP:  34; 6HR MAX TEMP:  46;                                

COLUMBIA       CLEAR    N/A N/A N/A CALM      30.18F                  


...WESTERN KENTUCKY...
  
CITY           SKY/WX    TMP DP  RH WIND       PRES   REMARKS
PADUCAH        CLEAR     36  35  96 CALM      30.21F FOG              
6HR MIN TEMP:  34; 6HR MAX TEMP:  41;                                

FORT CAMPBELL  CLEAR     39  39 100 E2        30.22F                  
6HR MIN TEMP:  37; 6HR MAX TEMP:  46;                                



...CENTRAL ARKANSAS...
  
CITY           SKY/WX    TMP DP  RH WIND       PRES   REMARKS
LITTLE ROCK    MOCLDY    47  42  83 CALM      30.20R                  
6HR MIN TEMP:  46; 6HR MAX TEMP:  52;                                



SKY/WX REPORTED AS FAIR MEANS FEW OR NO CLOUDS BELOW
12 THOUSAND FEET.


Return to Home page


Western Regional Climate Center, wrcc@dri.edu